GW2861 Weather Reports


time (UTC)temp
C
wind
direction
speed
KPH
gust
KPH
rain 1hr
cm
rain 24hr
cm
rain mn
cm
humidity
%
barometer
mb
20260506143019 21 198 4.8 16.1 0.00 0.00 0.00 62
20260506142018 20 204 3.2 9.7 0.00 0.00 0.00 64
20260506141017 20 203 3.2 11.3 0.00 0.00 0.00 63
20260506140019 20 203 4.8 11.3 0.00 0.00 0.00 63
20260506135038 20 196 3.2 8.0 0.00 0.00 0.00 64
20260506134017 20 206 3.2 9.7 0.00 0.00 0.00 64
20260506133017 20 197 3.2 9.7 0.00 0.00 0.00 64
20260506132019 20 198 3.2 11.3 0.00 0.00 0.00 65
20260506131018 20 195 3.2 11.3 0.00 0.00 0.00 66
20260506130018 20 197 3.2 9.7 0.00 0.00 0.00 66
20260506125057 19 199 3.2 8.0 0.00 0.00 0.00 67
20260506124018 19 198 3.2 8.0 0.00 0.00 0.00 67
20260506123018 19 207 1.6 4.8 0.00 0.00 0.00 68
20260506122017 19 203 3.2 8.0 0.00 0.00 0.00 68
20260506121019 19 197 3.2 12.9 0.00 0.00 0.00 68
20260506120018 19 207 3.2 14.5 0.00 0.00 0.00 68
20260506115018 19 197 3.2 11.3 0.00 0.00 0.00 69
20260506114017 18 197 3.2 9.7 0.00 0.00 0.00 70
20260506113018 18 198 3.2 9.7 0.00 0.00 0.00 70
20260506112018 18 204 4.8 11.3 0.00 0.00 0.00 70
20260506111017 18 206 3.2 8.0 0.00 0.00 0.00 71
20260506110017 18 200 4.8 11.3 0.00 0.00 0.00 72
20260506105018 17 196 1.6 6.4 0.00 0.00 0.00 73
20260506104018 17 205 3.2 9.7 0.00 0.00 0.00 73
20260506103017 17 195 1.6 8.0 0.00 0.00 0.00 74
20260506102017 17 208 3.2 11.3 0.00 0.00 0.00 75
20260506101018 17 195 1.6 9.7 0.00 0.00 0.00 76
20260506100018 17 203 1.6 4.8 0.00 0.00 0.00 77
20260506095017 17 192 3.2 8.0 0.00 0.00 0.00 78
20260506094019 16 198 1.6 4.8 0.00 0.00 0.00 79
20260506093018 16 200 1.6 3.2 0.00 0.00 0.00 79
20260506092038 16 193 1.6 6.4 0.00 0.00 0.00 78
20260506091017 17 183 1.6 3.2 0.00 0.00 0.00 77
20260506090018 17 195 0.0 3.2 0.00 0.00 0.00 76
20260506085018 17 193 1.6 3.2 0.00 0.00 0.00 76
20260506084018 17 196 1.6 4.8 0.00 0.00 0.00 74
20260506083017 17 200 3.2 8.0 0.00 0.00 0.00 74
20260506082038 17 192 1.6 3.2 0.00 0.00 0.00 74
20260506081018 17 196 1.6 8.0 0.00 0.00 0.00 73
20260506073058 18 203 1.6 4.8 0.00 0.00 0.00 71
20260506072017 18 199 1.6 3.2 0.00 0.00 0.00 69
20260506071040 18 199 3.2 8.0 0.00 0.00 0.00 68
20260506062018 19 198 3.2 14.5 0.00 0.00 0.00 65
20260506061037 19 199 3.2 9.7 0.00 0.00 0.00 64
20260506051018 20 206 3.2 12.9 0.00 0.00 0.00 61
20260506045017 20 198 3.2 12.9 0.00 0.00 0.00 60
20260506044019 20 195 1.6 4.8 0.00 0.00 0.00 59
20260506043038 20 200 3.2 11.3 0.00 0.00 0.00 59
20260506042018 20 198 3.2 11.3 0.00 0.00 0.00 58
20260506041017 20 197 3.2 11.3 0.00 0.00 0.00 58
20260506040018 20 203 3.2 11.3 0.00 0.00 0.00 57
20260506035018 20 202 3.2 9.7 0.00 0.00 0.00 57
20260506034017 20 196 3.2 11.3 0.00 0.00 0.00 56
20260506033017 20 203 4.8 9.7 0.00 0.00 0.00 55
20260506032018 21 201 4.8 11.3 0.00 0.00 0.00 55
20260506031039 21 203 3.2 9.7 0.00 0.00 0.00 54
20260506030017 21 197 3.2 9.7 0.00 0.00 0.00 55
20260506025019 21 206 3.2 12.9 0.00 0.00 0.00 54
20260506024018 21 212 3.2 11.3 0.00 0.00 0.00 54
20260506023017 21 198 4.8 16.1 0.00 0.00 0.00 53
20260506022017 22 198 4.8 9.7 0.00 0.00 0.00 52
20260506021018 22 201 4.8 12.9 0.00 0.00 0.00 50
20260506020018 22 204 3.2 9.7 0.00 0.00 0.00 48
20260506015017 22 200 3.2 6.4 0.00 0.00 0.00 45
20260506014017 23 194 4.8 8.0 0.00 0.00 0.00 43
20260506013018 23 202 3.2 8.0 0.00 0.00 0.00 42
20260506012017 23 195 3.2 9.7 0.00 0.00 0.00 41
20260506011017 23 197 3.2 8.0 0.00 0.00 0.00 41
20260506010017 24 194 4.8 11.3 0.00 0.00 0.00 40
20260506005018 24 196 3.2 9.7 0.00 0.00 0.00 40
20260506004018 24 206 3.2 9.7 0.00 0.00 0.00 40
20260506003017 25 200 3.2 8.0 0.00 0.00 0.00 38
20260506002018 25 202 3.2 9.7 0.00 0.00 0.00 36
20260506001038 25 202 3.2 11.3 0.00 0.00 0.00 36
20260506000017 25 205 3.2 9.7 0.00 0.00 0.00 34
20260505235017 25 197 3.2 11.3 0.00 0.00 0.00 34
20260505234018 25 213 3.2 11.3 0.00 0.00 0.00 33
20260505233018 25 201 3.2 9.7 0.00 0.00 0.00 33
20260505232017 26 200 4.8 11.3 0.00 0.00 0.00 32
20260505231017 26 196 3.2 11.3 0.00 0.00 0.00 31
20260505230018 26 196 3.2 12.9 0.00 0.00 0.00 30
20260505225017 26 207 3.2 8.0 0.00 0.00 0.00 29
20260505224017 27 198 4.8 16.1 0.00 0.00 0.00 29
20260505223039 27 199 4.8 16.1 0.00 0.00 0.00 29
20260505222018 27 205 3.2 11.3 0.00 0.00 0.00 30
20260505221018 27 193 3.2 8.0 0.00 0.00 0.00 30
20260505220037 27 198 3.2 12.9 0.00 0.00 0.00 29
20260505215018 27 196 3.2 11.3 0.00 0.00 0.00 29
20260505214017 27 196 3.2 12.9 0.00 0.00 0.00 29
20260505213017 27 200 6.4 22.5 0.00 0.00 0.00 29
20260505212017 28 198 4.8 11.3 0.00 0.00 0.00 29
20260505211018 28 198 6.4 16.1 0.00 0.00 0.00 28
20260505210037 28 209 4.8 14.5 0.00 0.00 0.00 29
20260505205057 28 204 6.4 16.1 0.00 0.00 0.00 29
20260505204018 28 193 4.8 12.9 0.00 0.00 0.00 29
20260505203018 28 192 4.8 12.9 0.00 0.00 0.00 29
20260505202017 29 198 3.2 12.9 0.00 0.00 0.00 29
20260505201017 29 198 4.8 24.1 0.00 0.00 0.00 30
20260505200038 29 196 3.2 9.7 0.00 0.00 0.00 29
20260505195017 28 207 6.4 17.7 0.00 0.00 0.00 29
20260505194017 28 196 3.2 11.3 0.00 0.00 0.00 29
20260505193017 28 193 6.4 20.9 0.00 0.00 0.00 30
20260505192018 28 211 4.8 9.7 0.00 0.00 0.00 31
20260505191018 28 193 4.8 9.7 0.00 0.00 0.00 31
20260505190017 28 211 6.4 17.7 0.00 0.00 0.00 31
20260505185016 28 197 3.2 12.9 0.00 0.00 0.00 32
20260505184038 28 211 3.2 11.3 0.00 0.00 0.00 33
20260505183017 27 201 4.8 14.5 0.00 0.00 0.00 34
20260505182017 27 200 6.4 16.1 0.00 0.00 0.00 35
20260505181036 27 205 6.4 19.3 0.00 0.00 0.00 33
20260505180038 27 203 3.2 9.7 0.00 0.00 0.00 35
20260505175018 27 206 3.2 8.0 0.00 0.00 0.00 36
20260505174017 27 208 4.8 11.3 0.00 0.00 0.00 37
20260505173038 27 200 4.8 9.7 0.00 0.00 0.00 38
20260505172038 27 194 3.2 11.3 0.00 0.00 0.00 39
20260505171017 27 195 3.2 8.0 0.00 0.00 0.00 39
20260505170017 26 208 3.2 11.3 0.00 0.00 0.00 39
20260505165018 26 206 4.8 14.5 0.00 0.00 0.00 39
20260505164018 26 203 4.8 11.3 0.00 0.00 0.00 40
20260505163037 26 201 3.2 9.7 0.00 0.00 0.00 40
20260505162016 26 184 3.2 6.4 0.00 0.00 0.00 40
20260505161018 26 203 4.8 11.3 0.00 0.00 0.00 41
20260505153018 25 208 1.6 6.4 0.00 0.00 0.00 42
20260505152017 25 205 1.6 8.0 0.00 0.00 0.00 42
20260505151017 25 205 1.6 8.0 0.00 0.00 0.00 44